Location: Antin
(43.3330°N, 0.2804°E)
Time: 22:52:51
(UTC+00:00)

SKYMED 2 - Pass Details

Date: 16 October 2021
Orbit: 621 x 623 km, 97.9° (Epoch: 04 December)

Event Time Altitude Azimuth Distance (km) Brightness Sun altitude
Rises 17:50:49 0° 16° (NNE) 2,915 6.8 -7.4°
Reaches altitude 10° 17:53:03 10° 21° (NNE) 2,003 5.9 -7.8°
Maximum altitude 17:57:21 58° 101° (E) 728 3.6 -8.6°
Drops below altitude 10° 18:01:37 10° 180° (S) 1,986 6.2 -9.4°
Sets 18:03:49 0° 185° (S) 2,887 7.1 -9.8°
